THOR ABLESTAR DEB, 645

Orbit data source: Space-Track

THOR ABLESTAR DEB, 645 is space debris in LEO originally from a launch on Thu, 29 Jun 1961 UTC launched from the Air Force Eastern Test Range (AFETR). Debris objects in space refer to the collection of defunct objects orbiting the Earth. Examples of debris include non-operational satellites, rocket bodies, and fragments generated from explosions, collisions, or faulty payload assembly.

Loading next visibility...
Identifier
645, 1961-015GW
Orbit
LEO
Country
Flag of USUS
Related business
Manufacturer
Unknown
Mission
Spacecraft
Bus & Motor
Unknown
Mass
Unknown
Launch date (UTC)
1961-06-29 (65 years ago)
Launch vehicle
Unknown
Launch site
Air Force Eastern Test Range (AFETR)
Object type
Payload
Rocket body
Debris
Shape & HBR
Unknown shape, 0.1 m
Radar Cross Section
Small (<0.1 m²)

Expand to show TLE details & history
Last TLE update: 1 day ago

TLE from 1 day ago
0 THOR ABLESTAR DEB
1 00645U 61015GW  26125.80512769  .00000103  00000-0  34316-3 0  9996
2 00645  66.5861 313.9272 0407358 155.4751 304.8710 13.04898384 74283
Epoch: 2026-05-05T19:19Z
TLE epoch observation values (Epoch: 2026-05-05T19:19:23.032Z)
Latitude
65.88248°
Longitude
-93.8029°
Altitude
1,084.806 km
Speed
7.397 km/s
True Right ascension
03h 58m 52s
True Declination
65° 45' 35"
Sunlit
Object was in daylight at epoch
Visualization orbit readout
Latitude
Unknown
Longitude
Unknown
Altitude
Unknown
Speed
Unknown
Apparent Right ascension
Unknown
Apparent Declination
Unknown
Sunlit
N/A
Visualization observer readout
Local Sidereal Time
05:41:53
Azimuth
Unknown
Elevation
Unknown
Doppler factor
Unknown
Orbital elements
Apogee altitude
1,551.828 km
Perigee altitude
931.049 km
Semi-major axis
7,619.575 km
Eccentricity
0.04074
Inclination
66.5861°
RAAN
313.9272°
Arg. of periapsis
155.4751°
True anomaly
300.92962°
Mean anomaly
304.871°
Eccentric anomaly
302.91159°
Mean motion
3.26322 °/min
Orbital period
110.32 mins
BSTAR
0.00034316

Documentation

Showing up to 5 results
|